Regional Weather Roundup
Issued by NWS

Home | Current Version | Previous Version | Text Only | Print | Product List | Glossary Off
Versions: 1 2 3 4 5 6 7 8 9 10 11 12 13 14 15 16 17 18 19 20 21 22 23 24 25 26 27 28 29 30 31 32 33 34 35 36 37 38 39 40 41 42 43 44 45 46 47 48 49 50

000
ASUS43 KMKX 021021
RWRWI

WISCONSIN REGIONAL WEATHER ROUNDUP
NATIONAL WEATHER SERVICE MILWAUKEE/SULLIVAN WI
500 AM CDT WED SEP 02 2015

NOTE: "FAIR" INDICATES FEW OR NO CLOUDS BELOW 12,000 FEET WITH NO
SIGNIFICANT WEATHER AND/OR OBSTRUCTIONS TO VISIBILITY.

WIZ001-002-006>008-014>016-023>028-021100-
NORTHWEST WISCONSIN

CITY           SKY/WX    TMP DP  RH WIND       PRES   REMARKS
SUPERIOR ARPT  CLOUDY    64  63  94 CALM      29.92R
ASHLAND        FOG       68  68 100 NE5       29.94S VSB 1
HAYWARD        TSTM      66  64  93 VRB5      29.98R FOG
SIREN          LGT RAIN  69  67  94 CALM      29.94F
CUMBERLAND     CLOUDY    72  70  94 NW5       29.96R
RICE LAKE      CLOUDY    72  71  96 SE5       29.95S FOG
CHETEK         CLOUDY   N/A N/A N/A CALM      29.95R HAZE
LADYSMITH      CLOUDY    72  71  96 S5        29.97S FOG
EAU CLAIRE     CLOUDY    74  71  91 S5        29.94R
MENOMONIE      CLOUDY    71  71  98 E3        29.94R FOG
NEW RICHMOND   RAIN      73  72  97 SW9       29.95R
OSCEOLA        HVY RAIN  73  73 100 CALM      29.96R
$$

WIZ003>005-009-010-017-018-021100-
NORTH CENTRAL WISCONSIN

CITY           SKY/WX    TMP DP  RH WIND       PRES   REMARKS
MANITOWISH WTR MOCLDY    63  63 100 CALM      29.98S
ARBOR VITAE    PTCLDY    65  64  95 CALM      29.98S FOG
WOODRUFF       PTCLDY    65  64  95 CALM      29.98S FOG
RHINELANDER    FOG       69  67  93 CALM      29.99S VSB 3/4
EAGLE RIVER    MOCLDY    64  64 100 CALM      29.99R FOG
LAND O LAKES   FOG       62  62 100 CALM      30.00S VSB 1/2
PHILLIPS       CLOUDY    69  69 100 CALM      29.97R FOG
TOMAHAWK       FOG       66  65  97 CALM      29.99R VSB 3/4
MEDFORD        MOCLDY    69  69 100 S5        29.98S FOG
MERRILL        FOG       64  64 100 CALM      29.98S VSB 1/4
$$

WIZ029-030-035-036-043>047-021100-
CENTRAL WISCONSIN

CITY           SKY/WX    TMP DP  RH WIND       PRES   REMARKS
WAUSAU         MOCLDY    72  70  93 SE3       29.96S FOG
MOSINEE          N/A     68  68 100 S5        29.99S FOG
MARSHFIELD     FOG       69  65  86 SW3       29.98S VSB 1/4
STEVENS POINT  PTCLDY    68  68  99 CALM      29.99R FOG
WAUPACA        FOG       71  70  96 CALM      29.98R VSB 3/4
WAUTOMA        FOG       70  70 100 CALM      29.99S VSB 1/4
WISC RAPIDS    PTCLDY    70  68  93 S3        29.99S FOG
CAMP DOUGLAS   FOG       66  66 100 SE5       29.98S VSB 1/4
$$

WIZ011>013-019>022-031-037>040-048>050-021100-
NORTHEAST WISCONSIN

CITY           SKY/WX    TMP DP  RH WIND       PRES   REMARKS
ANTIGO         FOG       64  64 100 CALM      29.99S VSB<1/4
SHAWANO        PTCLDY    71  70  94 CALM      29.96S FOG
OCONTO         PTCLDY    67  67 100 CALM      29.94S
STURGEON BAY   PTCLDY    73  70  88 W5        29.97S
GREEN BAY      PTCLDY    70  69  97 CALM      29.96S FOG
MANITOWOC      PTCLDY    65  62  90 MISG      29.97R FOG
APPLETON       PTCLDY    70  70 100 SW6       29.96S FOG
CLINTONVILLE   FOG       64  64 100 CALM      29.96S VSB 1/4
OSHKOSH        CLEAR     73  70  90 SW8       29.97S FOG
$$

WIZ032>034-041-042-053>061-021100-
SOUTHWEST WISCONSIN

CITY           SKY/WX    TMP DP  RH WIND       PRES   REMARKS
LA CROSSE      MOCLDY    75  70  84 S8        29.95S
SPARTA         PTCLDY    64  63  96 CALM      29.98S FOG
VIROQUA          N/A     71  71 100 SW6       30.01R
BOSCOBEL       FOG       66  65  96 CALM      29.99S VSB 1/4
PRAIRIE DU CHI PTCLDY    71  66  84 CALM      29.99S
PLATTEVILLE    CLEAR     69  67  96 S6        30.01S
$$

WIZ056-057-062-063-064-067-068-021100-
SOUTH CENTRAL WISCONSIN

CITY           SKY/WX    TMP DP  RH WIND       PRES   REMARKS
REEDSBURG      PTCLDY    70  69  98 CALM      29.99R
BARABOO/DELLS  PTCLDY    72  68  87 CALM      30.00R
LONE ROCK      PTCLDY    68  66  93 CALM      30.00R FOG
MINERAL POINT  CLEAR     72  68  88 SW6       30.02S
MADISON        PTCLDY    74  68  81 CALM      30.00R
MIDDLETON      PTCLDY    73  70  91 CALM      30.01R
WATERTOWN      PTCLDY    67  67 100 CALM      30.01R FOG
MONROE         CLEAR     70  68  94 SW7       30.02R
JANESVILLE     PTCLDY    72  70  94 CALM      30.01R
$$

WIZ051-052-058>065-066-070>072-021100-
SOUTHEAST WISCONSIN

CITY           SKY/WX    TMP DP  RH WIND       PRES   REMARKS
MILWAUKEE      PTCLDY    75  68  78 W5        30.00S
WAUKESHA       CLEAR     68  66  94 CALM      30.02S
MILWAUKEE/TIMM PTCLDY    70  66  88 SW3       30.01S
RACINE         PTCLDY    73  68  84 W6        30.02S
BURLINGTON     CLEAR     65  64  97 CALM      30.02R FOG
KENOSHA        PTCLDY    72  68  87 W7        30.02R
FOND DU LAC    CLEAR     73  71  93 SW7       29.99R
SHEBOYGAN      PTCLDY    72  70  93 SW6       29.98R
WEST BEND      CLEAR     70  68  94 CALM      30.00S
JUNEAU         CLEAR     68  68  98 S3        30.02R FOG
$$

LSZ147-162-021100-
LAKE SUPERIOR

STATION/POSITION TIME  TEMP    WIND        PRES    WAVE
                       AIR SEA DIR/SP/G            HT/PER
                 (UTC) (F)     (DEG/KT/KT) (MB)    (FT/S)
W MID LAKE BUOY  0950   57 56   50/  4/  4 1013.8R   0
DEVILS ISLAND    1000   66      90/  8/  8 1013.2F
PORT WING        0900   63      60/  4/  9 1012.9
SAXON HARBOR     1000   68     190/  2/  7 1012.9S
$$

LMZ867-665-643>646-021100-
LAKE MICHIGAN

STATION/POSITION TIME  TEMP    WIND        PRES    WAVE
                       AIR SEA DIR/SP/G            HT/PER
                 (UTC) (F)     (DEG/KT/KT) (MB)    (FT/S)
CHAMBERS ISLAND  0900   71      CALM  /  6 1013.5F
S GREEN BAY BUOY 1000   69 67  220/  6/  8 1015.4
N MID LAKE BUOY  0950   66 65  200/  6/  6 1013.6S   1/ 4
NORTHPORT PIER   0900   64      CALM  /  3 1013.5
SISTER BAY       0919   73        CALM       N/A
ALGOMA LAKESHORE 0929             CALM       N/A
KEWAUNEE LAKESHO 1000          190/  3/  4 1013.2R
SHEBOYGAN LAKESH 1000   74     240/  8/  9 1014.8R
PORT WASHINGTON  0900   75     260/  5/  9 1015.6
ATWATER BUOY     1000   61 50  130/  6/  6 1016.9S
MILWAUKEE LAKESH 1010   75     250/  7/  8   N/A
S MID LAKE BUOY  0850   72 70  200/  8/ 10 1015.5R   1/ 4
KENOSHA   LAKESH 1000   76     250/  5/  8 1015.9R
$$

TC  - TEMPERATURE IN CELSIUS
VSB - VISIBILITY IN STATUTE MILES
WCI - WIND CHILL INDEX
HX  - HEAT INDEX




USA.gov is the U.S. government's official web portal to all federal, state and local government web resources and services.